[[{"header":{"parameterUnit":"m.s-1","parameterCategory":1,"la1":30.2991,"la2":30.254,"lo1":-89.0895,"lo2":-89.0444,"dy":0.0017,"dx":0.0017,"nx":28,"ny":28,"refTime":"2025-06-06T21:00:00:Z","depth":0,"parameterNumber":2,"parameterNumberName":"U-component_of_WINDS"},"data":[0,0,0,0,0,0,0,0,0,0,0,0,0,0,0,0,0,0,0,0,0,0,0,0,0,0,0,0,0,0,0,0,0,0,0,0,0,0,0,0,0,0,0,0,0,0,0,0,0,0,0,0,0,0,0,0,0,0,3.6382,3.6384,0,3.6545,3.6547,3.6549,3.6507,3.6504,3.65,3.6497,3.6669,3.6676,3.6683,0,0,0,0,0,0,0,0,0,0,0,0,0,3.6037,3.6044,3.6382,3.6384,3.6386,3.6545,3.6547,3.6549,3.6507,3.6503,3.65,3.6496,3.6666,3.6675,3.6684,0,0,0,0,0,0,0,0,0,0,0,0,0,3.6193,3.6046,3.6381,3.6384,3.6386,3.6544,3.6547,3.655,3.6508,3.6503,3.6499,3.6494,3.6663,3.6674,3.6685,3.6852,0,0,3.672,3.6725,0,0,0,0,0,0,0,0,3.6184,3.6205,3.6382,3.6384,3.6387,3.65,3.6488,3.6651,3.6509,3.6462,3.6497,3.6492,3.6617,3.6632,3.6673,3.686,3.6867,3.6721,3.6728,3.6733,3.6736,0,0,0,0,0,0,0,3.6173,3.6198,3.6446,3.6384,3.6387,3.6378,3.6395,3.6519,3.6565,3.6466,3.6463,3.6483,3.6617,3.6662,3.6677,3.687,3.6721,3.6731,3.6738,3.6742,3.7201,3.7206,0,0,0,0,0,0,3.616,3.6189,3.6441,3.6451,3.6271,3.6388,3.6407,3.6469,3.6563,3.6573,3.6487,3.648,3.6645,3.6663,3.6683,3.6883,3.6733,3.6743,3.675,3.7195,3.7202,3.7208,0,0,0,0,0,0,3.6153,3.6183,3.6435,3.632,3.6351,3.6399,3.6469,3.6475,3.6519,3.6579,3.6587,3.6524,3.6642,3.6667,3.681,3.6888,3.6748,3.6759,3.7189,3.7197,3.7205,3.7286,0,0,0,0,0,0,3.6143,3.618,3.6244,3.6321,3.6357,3.6558,3.6474,3.6481,3.6539,3.6532,3.6616,3.6625,3.664,3.6793,3.6821,3.6901,3.6768,3.7182,3.7193,3.7202,3.7276,3.7295,3.7312,0,0,0,0,0,3.6131,3.6261,3.6247,3.6278,3.6437,3.6563,3.6584,3.6597,3.6545,3.6609,3.6647,3.6623,3.6875,3.6808,3.6839,3.6924,3.7177,3.719,3.7202,3.7268,3.7292,3.7311,0,0,0,0,0,0,3.6193,3.6271,3.6257,3.6416,3.6483,3.6556,3.6637,3.6621,3.6706,3.6696,3.671,3.6729,3.6875,3.6914,3.6838,3.709,3.7019,3.7038,3.7059,3.7082,3.7099,3.7087,3.6777,0,0,0,0,0,3.6225,3.632,3.6383,3.6518,3.6552,3.6589,3.6644,3.6648,3.6719,3.6747,3.6796,3.6866,3.6961,3.7024,3.7115,3.7282,3.7299,3.7355,3.7373,3.7388,3.7404,3.7494,3.7519,3.7248,3.7247,3.7247,0,0,3.6293,3.6347,3.6406,3.6531,3.6584,3.6682,3.6613,3.672,3.6793,3.6764,3.6901,3.694,3.7019,3.7174,3.7245,3.7212,3.7483,3.7403,3.7414,3.7423,3.7509,3.7535,3.7557,3.7256,3.7254,3.7253,0,0,3.6466,3.6517,3.6633,3.6687,3.6766,3.679,3.6818,3.6893,3.6917,3.7054,3.7034,3.7122,3.7286,3.7342,3.7393,3.7586,3.7567,3.7616,3.7709,3.7797,3.7818,3.7837,3.7905,3.793,3.7632,3.7632,3.7632,0,3.654,3.6686,3.6696,3.6804,3.686,3.6836,3.6954,3.7006,3.7112,3.7152,3.7112,3.7316,3.7368,3.7535,3.7582,3.7624,3.7657,3.7606,3.7814,3.7833,3.7851,3.7916,3.7942,3.7637,3.7637,3.7636,3.7636,0,3.6773,3.6874,3.6959,3.706,3.7125,3.7239,3.7266,3.7331,3.7329,3.7357,3.7497,3.7559,3.7661,3.7701,3.7702,3.7869,3.7845,3.781,3.7739,3.7882,3.7944,3.7969,3.7645,3.7643,3.7642,3.764,0,0,3.699,3.7093,3.7124,3.7169,3.7255,3.7334,3.7446,3.7544,3.76,3.7674,3.7768,3.7906,3.7873,3.7931,3.7937,3.8014,3.8162,3.7969,3.7971,3.8002,3.8349,3.8375,3.8403,3.815,3.8154,3.8158,3.8342,0,3.7169,3.7365,3.7377,3.7554,3.7648,3.7627,3.7724,3.7788,3.7817,3.7901,3.7934,3.8031,3.7981,3.8015,3.809,3.8128,3.8232,3.8115,3.8238,3.8242,3.8217,3.8436,3.8463,3.8634,3.8366,3.8371,3.8374,0,3.7405,3.7484,3.7671,3.7741,3.7781,3.7869,3.7959,3.804,3.8112,3.8127,3.8191,3.8186,3.8301,3.8226,3.8385,3.8305,3.8356,3.8382,3.8389,3.8401,3.8316,3.8452,3.8689,3.8714,3.8412,3.8409,3.8406,0,3.7543,3.7697,3.7827,3.7867,3.7953,3.8015,3.8054,3.8121,3.8179,3.8258,3.8296,3.8389,3.8439,3.8512,3.8532,3.8476,3.869,3.8617,3.8707,3.8706,3.8753,3.8749,3.9,3.8787,3.8787,3.8786,3.8785,0,3.7742,3.7857,3.789,3.7971,3.8099,3.8112,3.8238,3.8274,3.8333,3.842,3.8408,3.8491,3.8513,3.86,3.8617,3.8745,3.8769,3.8785,3.8788,3.8786,3.8783,3.8819,3.8807,3.8793,3.8791,3.879,3.8789,0,3.7918,3.7945,3.8086,3.8156,3.8176,3.8267,3.8327,3.8405,3.8432,3.8543,3.8569,3.8612,3.8714,3.8741,3.8863,3.8875,3.9026,3.9018,3.9001,3.9001,3.9088,3.9079,3.937,3.9408,3.917,3.9173,3.9175,0,3.8043,3.813,3.8209,3.8266,3.8307,3.8399,3.8458,3.8474,3.8535,3.8623,3.869,3.8789,3.887,3.9033,3.9075,3.9169,3.9163,3.9258,3.9177,3.9171,3.9163,3.9157,3.9166,3.9273,3.9276,3.9278,3.928,0,3.8261,3.827,3.8354,3.8443,3.8512,3.8584,3.8652,3.87,3.8725,3.8795,3.8898,3.896,3.9083,3.9182,3.9276,3.9317,3.9303,3.9305,3.933,3.9328,3.9314,3.9322,3.9042,3.9298,3.9296,3.9295,3.9294,3.9293,3.8415,3.8491,3.8557,3.8651,3.8704,3.8768,3.8844,3.8879,3.8965,3.9065,3.907,3.9181,3.925,3.9374,3.942,3.9508,3.948,3.9517,3.9526,3.9535,3.9542,3.9301,3.9525,3.9525,3.9524,3.9524,3.9524,0,3.8631,3.8673,3.8759,3.8854,3.8928,3.8906,3.898,3.9044,3.9141,3.9206,3.9285,3.9403,3.9498,3.9548,3.9643,3.9703,3.9699,3.9728,3.9723,3.9733,3.9562,3.953,3.9729,3.9729,3.9729,3.9729,3.9729,3.9729,3.8752,3.888,3.8896,3.905,3.9091,3.9198,3.9242,3.9301,3.9352,3.9484,3.9562,3.9593,3.9652,3.9751,3.9838,3.985,3.9885,3.9917,3.9926,3.9766,3.9745,3.9725,3.9695,3.9925,3.9925,4.0089,4.009,4.0092]},{"header":{"parameterUnit":"m.s-1","parameterCategory":1,"la1":30.2991,"la2":30.254,"lo1":-89.0895,"lo2":-89.0444,"dy":0.0017,"dx":0.0017,"nx":28,"ny":28,"refTime":"2025-06-06T21:00:00:Z","depth":0,"parameterNumber":3,"parameterNumberName":"V-component_of_WINDS"},"data":[0,0,0,0,0,0,0,0,0,0,0,0,0,0,0,0,0,0,0,0,0,0,0,0,0,0,0,0,0,0,0,0,0,0,0,0,0,0,0,0,0,0,0,0,0,0,0,0,0,0,0,0,0,0,0,0,0,0,6.0315,6.0317,0,6.0528,6.053,6.0533,6.0515,6.0512,6.0509,6.0505,6.0719,6.0727,6.0736,0,0,0,0,0,0,0,0,0,0,0,0,0,5.9887,5.9895,6.0315,6.0318,6.032,6.0528,6.053,6.0533,6.0516,6.0512,6.0508,6.0504,6.0716,6.0726,6.0737,0,0,0,0,0,0,0,0,0,0,0,0,0,6.0083,5.9898,6.0314,6.0336,6.0341,6.0527,6.0531,6.0534,6.0516,6.0512,6.0507,6.0502,6.0713,6.0725,6.0738,6.0915,0,0,6.0778,6.0784,0,0,0,0,0,0,0,0,6.0072,6.0099,6.0331,6.0335,6.034,6.049,6.0458,6.0662,6.0518,6.0449,6.0505,6.05,6.0646,6.0665,6.0715,6.0925,6.0934,6.0779,6.0787,6.0793,6.0796,0,0,0,0,0,0,0,6.0059,6.009,6.0399,6.0334,6.034,6.0334,6.0356,6.0496,6.0572,6.0455,6.0454,6.048,6.0648,6.0702,6.072,6.0937,6.0779,6.079,6.0798,6.0803,6.1301,6.1306,0,0,0,0,0,0,6.0041,6.0079,6.0392,6.0405,6.0192,6.0345,6.0371,6.0447,6.0571,6.0585,6.0484,6.0478,6.0683,6.0705,6.0727,6.0941,6.0793,6.0805,6.0812,6.1295,6.1302,6.1308,0,0,0,0,0,0,6.0032,6.0069,6.0384,6.0242,6.0282,6.0358,6.0443,6.0453,6.0508,6.0593,6.0605,6.0526,6.068,6.0709,6.0868,6.0948,6.0811,6.0822,6.1289,6.1297,6.1305,6.1371,0,0,0,0,0,0,6.002,6.0066,6.0135,6.0244,6.0289,6.0523,6.0448,6.0461,6.0531,6.0526,6.0635,6.0649,6.0678,6.0849,6.0881,6.0964,6.0833,6.1282,6.1293,6.1302,6.1362,6.1381,6.1397,0,0,0,0,0,6.0004,6.0145,6.0139,6.0177,6.0378,6.0528,6.0554,6.0586,6.0538,6.0607,6.0661,6.0645,6.0934,6.0865,6.0902,6.0989,6.1277,6.129,6.1301,6.1355,6.1377,6.1396,0,0,0,0,0,0,6.0043,6.016,6.0154,6.0335,6.0422,6.0525,6.0614,6.0609,6.071,6.0701,6.0735,6.076,6.092,6.097,6.0892,6.1166,6.1099,6.1119,6.1127,6.1149,6.1166,6.115,6.0843,0,0,0,0,0,6.0073,6.0187,6.0282,6.0432,6.0476,6.0537,6.0604,6.0621,6.0712,6.0748,6.0813,6.0901,6.1011,6.1083,6.1189,6.1369,6.1392,6.1447,6.1464,6.1478,6.1494,6.1591,6.1617,6.1347,6.1347,6.1347,0,0,6.0136,6.0213,6.0283,6.0442,6.0511,6.0626,6.0568,6.0693,6.0778,6.0766,6.0921,6.0972,6.1071,6.1241,6.1319,6.1288,6.1574,6.1493,6.1503,6.1513,6.1607,6.1632,6.1655,6.1356,6.1354,6.1353,0,0,6.0308,6.0379,6.0511,6.0582,6.0688,6.0727,6.0759,6.0863,6.0896,6.1052,6.1045,6.1146,6.1335,6.1406,6.1467,6.1663,6.1652,6.1697,6.1786,6.188,6.1901,6.192,6.1989,6.2014,6.1713,6.1713,6.1714,0,6.0372,6.0547,6.0579,6.0705,6.0774,6.077,6.0902,6.0968,6.1103,6.115,6.1113,6.135,6.1416,6.1602,6.165,6.17,6.1735,6.1685,6.1896,6.1915,6.1933,6.1999,6.2025,6.1718,6.1718,6.1717,6.1717,0,6.0619,6.0741,6.0834,6.0965,6.1045,6.1173,6.1223,6.1299,6.1308,6.1351,6.1508,6.1588,6.1709,6.1754,6.1765,6.1941,6.1918,6.1889,6.1822,6.1963,6.2026,6.2051,6.1725,6.1723,6.1722,6.1721,0,0,6.0824,6.097,6.1004,6.1063,6.1178,6.1272,6.1398,6.1518,6.1582,6.1674,6.178,6.194,6.1913,6.1981,6.1999,6.2082,6.2231,6.2042,6.2044,6.2073,6.2428,6.2449,6.2478,6.2224,6.2229,6.2233,6.2419,0,6.1007,6.1235,6.1266,6.1466,6.1577,6.1573,6.1683,6.1765,6.1808,6.1906,6.1952,6.2065,6.2021,6.2062,6.2144,6.2195,6.2302,6.2182,6.2321,6.2325,6.2296,6.2511,6.2535,6.2707,6.2444,6.2448,6.2451,0,6.1253,6.1352,6.1564,6.1662,6.171,6.1809,6.192,6.2015,6.2106,6.2131,6.2207,6.2214,6.2343,6.2271,6.2448,6.2365,6.2423,6.2457,6.2464,6.2478,6.2397,6.253,6.2763,6.2789,6.249,6.2487,6.2484,0,6.1379,6.1566,6.1716,6.1767,6.1886,6.1955,6.2008,6.2094,6.2164,6.226,6.2305,6.2415,6.2474,6.2558,6.2593,6.2538,6.2767,6.2698,6.279,6.2789,6.2839,6.2835,6.3084,6.2877,6.2876,6.2876,6.2875,0,6.1581,6.171,6.1775,6.1867,6.2011,6.2045,6.2185,6.2235,6.2311,6.2411,6.2414,6.2507,6.2549,6.2648,6.2676,6.2817,6.2844,6.2866,6.2872,6.2866,6.2863,6.2904,6.2893,6.2883,6.2881,6.288,6.2879,0,6.1747,6.1796,6.1959,6.2058,6.2086,6.2188,6.2271,6.236,6.24,6.2527,6.2558,6.2622,6.2739,6.2783,6.2924,6.2943,6.3106,6.3102,6.3076,6.3077,6.3166,6.3156,6.3449,6.3489,6.3256,6.3258,6.326,0,6.1872,6.1972,6.2082,6.215,6.2205,6.2314,6.2385,6.2421,6.2494,6.2604,6.2679,6.2795,6.289,6.3076,6.3134,6.3242,6.324,6.3335,6.3256,6.3246,6.324,6.3234,6.3243,6.335,6.3352,6.3354,6.3356,0,6.2089,6.2108,6.2211,6.2323,6.2407,6.2496,6.2582,6.2637,6.2686,6.2767,6.2888,6.2961,6.3106,6.3221,6.3331,6.3382,6.3377,6.338,6.3407,6.3402,6.3382,6.3393,6.3115,6.3373,6.3371,6.337,6.3369,6.3369,6.2239,6.2326,6.2417,6.2531,6.2599,6.268,6.2767,6.2819,6.292,6.3042,6.3056,6.3185,6.327,6.3418,6.3474,6.3573,6.3548,6.3587,6.3596,6.3605,6.3611,6.3366,6.3594,6.3593,6.3593,6.3592,6.3592,0,6.2455,6.2513,6.2617,6.2738,6.2827,6.2815,6.291,6.2984,6.3098,6.3179,6.3273,6.3409,6.352,6.3586,6.3696,6.3763,6.3763,6.3791,6.3786,6.3797,6.3629,6.3594,6.3789,6.3789,6.3789,6.3789,6.3788,6.3788,6.2578,6.2725,6.2754,6.2934,6.299,6.3118,6.3172,6.3245,6.331,6.3463,6.3556,6.3598,6.3673,6.3789,6.3889,6.3905,6.3945,6.3975,6.3989,6.383,6.381,6.379,6.3758,6.3984,6.3984,6.4149,6.4151,6.4152]}]]